This is the latest recevied weather packets stored in our database for station/object K3SV. If no packets are shown the sender has not sent any weather packets the latest 10 day(s).
| Time | Temp. | Humidity | Pressure | Rain* | Wind** | Luminosity | Snow |
|---|---|---|---|---|---|---|---|
| 1778106969 | 32.22° C | 63% | 1014.7 hPa | 0 mm | - | 154 W/m² | - |
| 1778106665 | 32.22° C | 62% | 1014.6 hPa | 0 mm | - | 177 W/m² | - |
| 1778106362 | 32.22° C | 61% | 1014.7 hPa | 0 mm | - | 190 W/m² | - |
| 1778106058 | 33.33° C | 59% | 1014.6 hPa | 0 mm | - | 212 W/m² | - |
| 1778105756 | 33.33° C | 57% | 1014.8 hPa | 0 mm | - | 256 W/m² | - |
| 1778105454 | 33.33° C | 57% | 1014.5 hPa | 0 mm | - | 266 W/m² | - |
| 1778105150 | 35° C | 51% | 1014.8 hPa | 0 mm | - | 287 W/m² | - |
| 1778104845 | 34.44° C | 41% | 1014.6 hPa | 0 mm | - | 311 W/m² | - |
| 1778104542 | 34.44° C | 41% | 1014.6 hPa | 0 mm | - | 313 W/m² | - |
| 1778104238 | 33.89° C | 43% | 1014.6 hPa | 0 mm | - | 324 W/m² | - |
| 1778103935 | 33.89° C | 42% | 1014.7 hPa | 0 mm | - | 339 W/m² | - |
| 1778103632 | 33.89° C | 43% | 1014.7 hPa | 0 mm | - | 373 W/m² | - |
| 1778103331 | 33.89° C | 43% | 1014.7 hPa | 0 mm | - | 378 W/m² | - |
| 1778103027 | 33.33° C | 43% | 1014.7 hPa | 0 mm | - | 395 W/m² | - |
| 1778102724 | 33.89° C | 42% | 1014.6 hPa | 0 mm | - | 392 W/m² | - |
| 1778102419 | 34.44° C | 42% | 1014.8 hPa | 0 mm | - | 238 W/m² | - |
| 1778102115 | 34.44° C | 41% | 1014.9 hPa | 0 mm | - | 428 W/m² | - |
| 1778101813 | 35° C | 40% | 1014.7 hPa | 0 mm | - | 446 W/m² | - |
| 1778101508 | 35° C | 41% | 1014.6 hPa | 0 mm | - | 151 W/m² | - |
| 1778101206 | 35.56° C | 40% | 1014.8 hPa | 0 mm | - | 465 W/m² | - |
| 1778100902 | 35° C | 40% | 1014.7 hPa | 0 mm | - | 443 W/m² | - |
| 1778100592 | 35° C | 41% | 1014.8 hPa | 0 mm | - | 508 W/m² | - |
| 1778100290 | 34.44° C | 41% | 1014.7 hPa | 0 mm | - | 503 W/m² | - |
| 1778099988 | 34.44° C | 40% | 1014.7 hPa | 0 mm | - | 525 W/m² | - |
| 1778099685 | 35° C | 40% | 1014.7 hPa | 0 mm | - | 479 W/m² | - |
* Rain latest hour (hover to see other rain measurements)
** Current wind speed in m/s (hover to see current wind gust speed)